Russell, KS

12:08 PM CST on November 20, 2017 (GMT -0600)
Russell Municipal

Weather History for KRSL - January, 2013

Change the Weather History Date:

Saturday, January 5, 2013

  Actual Average Record
Temperature  
Mean Temperature 31 °F -  
Max Temperature 36 °F 37 °F 67 °F (1956)
Min Temperature 21 °F 16 °F -12 °F (1971)
Degree Days  
Heating Degree Days 34    
Moisture  
Dew Point 23 °F    
Average Humidity 76    
Maximum Humidity 88    
Minimum Humidity 61    
Precipitation  
Precipitation 0.00 in - - ()
Sea Level Pressure  
Sea Level Pressure 30.19 in    
Wind  
Wind Speed 11 mph (WSW)    
Max Wind Speed 16 mph    
Max Gust Speed 28 mph    
Visibility 10 miles    
Events      
Averages and records for this station are not official NWS values.
T = Trace of Precipitation, MM = Missing Value Source: NWS Daily Summary

Daily Weather History Graph

Daily Weather History Graph

Search for Another Location

Airport or City:

Trip Planner

Search our weather history database for the weather conditions in past years. The results will help you decide how hot, cold, wet, or windy it might be!

Date:

Astronomy

Jan. 05, 2013 Rise Set
Actual Time 7:54 AM CST 5:27 PM CST
Civil Twilight 7:24 AM CST 5:57 PM CST
Nautical Twilight 6:51 AM CST 6:30 PM CST
Astronomical Twilight 6:18 AM CST 7:02 PM CST
Moon 1:04 AM CST (1/5) 12:16 PM CST (1/5)
Length of Visible Light 10h 33m
Length of Day
9h 33m
Last Quarter, 44% of the Moon is Illuminated
Jan 5
Last Quarter
Jan 11
New
Jan 18
First Quarter
Jan 26
Full
Feb 3
Last Quarter

Hourly Weather History & Observations

Time (CST) Temp. Windchill Dew Point Humidity Pressure Visibility Wind Dir Wind Speed Gust Speed Precip Events Conditions
12:53 AM 26.1 °F 18.4 °F 23.0 °F 88% 30.17 in 10.0 mi SW 6.9 mph - N/A   Overcast
1:53 AM 28.0 °F 18.6 °F 25.0 °F 88% 30.15 in 10.0 mi South 10.4 mph - N/A   Overcast
2:53 AM 30.0 °F 21.7 °F 26.1 °F 85% 30.14 in 10.0 mi South 9.2 mph - N/A   Overcast
3:53 AM 32.0 °F 22.1 °F 28.0 °F 85% 30.11 in 10.0 mi South 13.8 mph - N/A   Overcast
4:53 AM 33.1 °F 24.9 °F 28.0 °F 82% 30.11 in 10.0 mi SSW 10.4 mph - N/A   Scattered Clouds
5:53 AM 32.0 °F 24.2 °F 28.0 °F 85% 30.11 in 10.0 mi SW 9.2 mph - N/A   Scattered Clouds
6:53 AM 30.9 °F 21.2 °F 27.0 °F 85% 30.12 in 10.0 mi SSW 12.7 mph - N/A   Mostly Cloudy
7:53 AM 28.9 °F 17.7 °F 25.0 °F 85% 30.12 in 10.0 mi SSW 15.0 mph - N/A   Clear
8:53 AM 28.9 °F 17.3 °F 25.0 °F 85% 30.13 in 10.0 mi SW 16.1 mph 27.6 mph N/A   Clear
9:53 AM 30.0 °F 19.5 °F 25.0 °F 82% 30.17 in 10.0 mi WSW 13.8 mph - N/A   Clear
10:53 AM 27.0 °F 16.7 °F 19.0 °F 72% 30.19 in 10.0 mi West 11.5 mph - N/A   Clear
11:53 AM 26.1 °F 15.0 °F 16.0 °F 66% 30.16 in 10.0 mi West 12.7 mph - N/A   Clear
12:53 PM 28.0 °F 17.0 °F 17.1 °F 63% 30.16 in 10.0 mi West 13.8 mph - N/A   Clear
1:53 PM 30.9 °F 20.7 °F 19.0 °F 61% 30.16 in 10.0 mi NW 13.8 mph - N/A   Clear
2:53 PM 34.0 °F 25.5 °F 21.9 °F 61% 30.17 in 10.0 mi WNW 11.5 mph - N/A   Clear
3:53 PM 36.0 °F 27.5 °F 24.1 °F 62% 30.19 in 10.0 mi NW 12.7 mph - N/A   Clear
4:53 PM 35.1 °F 27.9 °F 24.1 °F 64% 30.21 in 10.0 mi WNW 9.2 mph - N/A   Clear
5:53 PM 34.0 °F 24.6 °F 24.1 °F 67% 30.24 in 10.0 mi WNW 13.8 mph - N/A   Clear
6:53 PM 30.0 °F 21.7 °F 21.9 °F 72% 30.26 in 10.0 mi West 9.2 mph - N/A   Clear
7:53 PM 28.0 °F 18.1 °F 21.0 °F 75% 30.29 in 10.0 mi West 11.5 mph - N/A   Clear
8:53 PM 28.0 °F 18.6 °F 21.0 °F 75% 30.30 in 10.0 mi West 10.4 mph - N/A   Clear
9:53 PM 26.1 °F 16.8 °F 19.9 °F 78% 30.33 in 10.0 mi West 9.2 mph - N/A   Clear
10:53 PM 21.9 °F 14.5 °F 18.0 °F 85% 30.35 in 10.0 mi WNW 5.8 mph - N/A   Clear